This is the latest recevied weather packets stored in our database for station/object W1RCY. If no packets are shown the sender has not sent any weather packets the latest 10 day(s).
| Time | Temp. | Humidity | Pressure | Rain* | Wind** | Luminosity | Snow |
|---|---|---|---|---|---|---|---|
| 1777999383 | 25.56° C | 45% | 1005.1 hPa | 0 mm | - | 758 W/m² | - |
| 1777999081 | 25° C | 46% | 1005.3 hPa | 0 mm | - | 737 W/m² | - |
| 1777998779 | 24.44° C | 47% | 1005.5 hPa | 0 mm | - | 674 W/m² | - |
| 1777998476 | 24.44° C | 48% | 1005.9 hPa | 0 mm | - | 700 W/m² | - |
| 1777998173 | 24.44° C | 47% | 1006.1 hPa | 0 mm | - | 692 W/m² | - |
| 1777997870 | 24.44° C | 47% | 1006 hPa | 0 mm | - | 674 W/m² | - |
| 1777997567 | 23.89° C | 48% | 1005.6 hPa | 0 mm | - | 681 W/m² | - |
| 1777997265 | 23.89° C | 47% | 1006 hPa | 0 mm | - | 704 W/m² | - |
| 1777996963 | 23.89° C | 48% | 1006.2 hPa | 0 mm | - | 701 W/m² | - |
| 1777996658 | 24.44° C | 49% | 1006.2 hPa | 0 mm | - | 678 W/m² | - |
| 1777996355 | 23.89° C | 49% | 1006.3 hPa | 0 mm | - | 674 W/m² | - |
| 1777996051 | 23.33° C | 50% | 1006.4 hPa | 0 mm | - | 654 W/m² | - |
| 1777995748 | 23.33° C | 49% | 1006.2 hPa | 0 mm | - | 665 W/m² | - |
| 1777995444 | 23.33° C | 50% | 1006.7 hPa | 0 mm | - | 668 W/m² | - |
| 1777995141 | 23.33° C | 49% | 1006.7 hPa | 0 mm | - | 704 W/m² | - |
| 1777994838 | 23.33° C | 51% | 1006.5 hPa | 0 mm | - | 682 W/m² | - |
| 1777994535 | 22.78° C | 51% | 1006.5 hPa | 0 mm | - | 704 W/m² | - |
| 1777994229 | 22.78° C | 52% | 1006.7 hPa | 0 mm | - | 698 W/m² | - |
| 1777993927 | 22.78° C | 51% | 1006.7 hPa | 0 mm | - | 698 W/m² | - |
| 1777993623 | 22.78° C | 52% | 1006.6 hPa | 0 mm | - | 681 W/m² | - |
| 1777993322 | 22.78° C | 52% | 1006.6 hPa | 0 mm | - | 307 W/m² | - |
| 1777993021 | 22.22° C | 52% | 1006.8 hPa | 0 mm | - | 165 W/m² | - |
| 1777992720 | 21.67° C | 53% | 1006.8 hPa | 0 mm | - | 430 W/m² | - |
| 1777992416 | 21.67° C | 55% | 1007 hPa | 0 mm | - | 197 W/m² | - |
| 1777992114 | 21.11° C | 56% | 1007 hPa | 0 mm | - | 488 W/m² | - |
* Rain latest hour (hover to see other rain measurements)
** Current wind speed in m/s (hover to see current wind gust speed)